カタログに戻る

DELTA 1 DEB

運用中SSO
NORAD 42586·DEBRIS·🇺🇸 United States

打ち上げ Nov 6, 1973 から Vandenberg Space Force Base

Loading…

次のパス (今後24時間)

TLE

経年Source: Space-Track

元期: Sep 9, 2026, 06:58 UTC

1 42586U 73086JA  26252.29034904  .00000006  00000-0  41083-3 0  9992
2 42586 102.3733 275.9782 0031079   7.5466  56.0916 12.35502469577265

AllMySatでDELTA 1 DEBをリアルタイム追跡

Download on the App Store